Location: Peterborough
(44.3091°N, 78.3197°W)
Time: 04:09:28
(UTC-04:00)

Tiros 1 - Pass Details

Date: 05 April 2023
Orbit: 627 x 661 km, 48.4° (Epoch: 09 June)

Event Time Altitude Azimuth Distance (km) Brightness Sun altitude
Rises 03:54:07 0° 259° (W) 2,967 - -28.4°
Reaches altitude 10° 03:56:28 10° 262° (W) 2,061 - -28.1°
Maximum altitude 04:01:12 65° 345° (NNW) 725 - -27.5°
Exits shadow 04:01:41 60° 19° (NNE) 752 7.6 -27.4°
Drops below altitude 10° 04:05:58 10° 68° (ENE) 2,078 10.6 -26.9°
Sets 04:08:21 0° 71° (ENE) 2,992 11.6 -26.5°
